Kezdőlap
METAR-TAF:

METAR-TAF

Repülőterek :

Westerly State Airport

Westerly, Rhode Island, Amerikai Egyesült Államok

földrajzi szélesség: 41-20-59N, földrajzi hosszúság: 071-47-56W, magasság: 24 m

Jelenlegi meteorológiai megfigyelések

A jelentés 8 perccel ezelõtt készült, 07:53 UTC
Szélcsend
Hőmérséklet 16°C
Páratartalom 82%
Légköri nyomás 1023 hPa
Látótávolság: 16.1 km
Borult 1700 lábon

METAR: KWST 260753Z AUTO 00000KT 10SM OVC017 16/13 A3020 RMK AO2 SLP227 T01610133

Idő: 04:01 (08:01 UTC)


TAF: hiányzik

Meteorológiai megfigyelések és előrejelzések több, mint 4000 repülőtéren (METAR és TAF jelentéseket).

A térképen piros és sárga pontok jelzik az elérhető meteorológiai állomásokat.

Mozgassa az egeret a pont fölött, hogy megjelenjen az állomás neve.

Azután kattintson az időjárási megfigyelések és előrejelzések megtekintéséhez.

A térkép megváltoztatása: kattintson a fekete keresztel jelölt zöld gombra ráközelítéshez, a vonallal jelölt zöld gombra távolításhoz, vagy a zöld nyilakra a szomszédos térképek eléréséhez.


METAR-TAF: